Regional Weather Roundup
Issued by NWS Albany, NY

Home | Current Version | Previous Version | Graphics & Text | Print | Product List | Glossary Off
Versions: 1 2 3 4 5 6 7 8 9 10 11 12 13 14 15 16 17 18 19 20 21 22 23 24 25 26 27 28

000
ASUS41 KALY 250310
RWRALY

NEW YORK STATE HOURLY WEATHER ROUNDUP
NATIONAL WEATHER SERVICE ALBANY NY
1100 PM EDT WED AUG 24 2016

NOTE: "FAIR" INDICATES FEW OR NO CLOUDS BELOW 12,000 FEET WITH NO
SIGNIFICANT WEATHER AND/OR NO OBSTRUCTIONS TO VISIBILITY.

NYZ032-033-038>043-046>054-057>066-NYZ062>081-082-084-250400-
EAST


CITY           SKY/WX    TMP DP  RH WIND       PRES   REMARKS
ALBANY         MOCLDY    74  61  63 S7        30.12S
GLENS FALLS    CLEAR     67  60  78 S5        30.10F
POUGHKEEPSIE   CLEAR     73  63  70 SE3       30.15S
NEWBURGH       CLEAR     72  64  78 SW6       30.18R
MONTGOMERY     CLEAR     66  63  90 SW3       30.17R
WHITE PLAINS   CLEAR     70  64  81 S3        30.18S
ISLIP          PTCLDY    73  65  75 SW8       30.18F
NEW YORK CITY  PTCLDY    78  63  59 SW9       30.17R
CENTRAL PARK     N/A     77  63  61 MISG        N/A
$$

NYZ005>009-017-018-044>046-055-056-250400-
CENTRAL


CITY           SKY/WX    TMP DP  RH WIND       PRES   REMARKS
FULTON         CLEAR     74  62  66 S7        30.05S
SYRACUSE       MOCLDY    77  60  55 S10       30.05S
ROME           PTCLDY    72  62  71 E6        30.10S
ELMIRA         CLOUDY    72  62  71 W5        30.10F
BINGHAMTON     PTCLDY    70  60  70 S10       30.16F
MONTICELLO     CLEAR     64  59  82 CALM      30.22S
$$

NYZ026>034-041>043-087-250400-
NORTH


CITY           SKY/WX    TMP DP  RH WIND       PRES   REMARKS
WATERTOWN      CLOUDY    77  59  53 S8        30.01F
FORT DRUM      NOT AVBL
MASSENA        PTCLDY    69  61  75 CALM      30.00F
SARANAC LAKE   PTCLDY    64  57  78 SW6       30.10F
PLATTSBURGH    PTCLDY    70  64  81 S3        30.04S
$$

NYZ001>004-010>016-019>021-085-250400-
WEST


CITY           SKY/WX    TMP DP  RH WIND       PRES   REMARKS
NIAGARA FALLS  CLOUDY    78  62  57 S8        30.00F
BUFFALO        PTCLDY    76  61  59 S8        30.02F
DUNKIRK        CLOUDY    78  61  55 S15G24    30.02F
JAMESTOWN      CLEAR     70  57  64 S9        30.10F
WELLSVILLE     CLEAR     71  59  65 VRB7      30.16F
ROCHESTER      MOCLDY    74  62  66 SW3       30.04F
PENN YAN       CLEAR     75  61  61 S6        30.09F
$$

             KEY
       WCI = WIND CHILL INDEX
       VSB = VISIBILITY
       HX  = HEAT INDEX
$$




USA.gov is the U.S. government's official web portal to all federal, state and local government web resources and services.